x

8774770 - Rockport, Tx (rcpt2) Weather Station

2:30am - Thu 5th May 2016 All times are CDT. -5 hours from GMT.

  • Wind
    6mph, 8mph gusts
  • Sea Temp 79°f
  • Air Temp 68°f
  • Sea Pressure 1015.9mb
  • 8774770 - Rockport, Tx
  • 8774770 - Rockport, Tx

More Historic Weather Station data

Upgrade to MSW Pro to gain access to the past 30 days of data for over 8000 Wavebouys and Weather Stations around the globe.

Join Pro

Comparision Forecast

View Surf forecast
   
Thu 05/05 2:30am 6 8 mph 1015.9mb 79f 68f
2:24am 6 8 mph 1015.9mb 79f 68f
2:18am 5 8 mph 1016mb 79f 68f
2:12am 6 8 mph 1016mb 79f 68f
2:06am 6 8 mph 1016.1mb 79f 68f
2:00am 5 8 mph 1016.1mb 79f 68f
1:54am 7 8 mph 1016.2mb 79f 69f
1:48am 6 11 mph 1016.2mb 79f 69f
1:42am 6 10 mph 1016.1mb 79f 69f
1:36am 6 10 mph 1016.2mb 79f 69f
1:30am 7 11 mph 1016.3mb 79f 70f
1:24am 6 10 mph 1016.3mb 79f 70f
1:18am 7 9 mph 1016.3mb 79f 70f
1:12am 7 9 mph 1016.2mb 79f 70f
1:06am 6 9 mph 1016.2mb 79f 70f
1:00am 6 9 mph 1016.2mb 79f 70f
12:54am 7 9 mph 1016.1mb 79f 70f
12:48am  -  mph 1016.1mb 79f 71f
12:42am  -  mph 1016.1mb 79f 71f
12:36am  -  mph 1015.9mb 79f 71f
12:30am 6 9 mph 1015.9mb 79f 71f
12:24am 5 7 mph 1015.9mb 79f 72f
12:18am 5 8 mph 1015.9mb 79f 72f
12:12am 6 8 mph 1016mb 79f 72f
12:06am 5 9 mph 1016mb 79f 73f
12:00am 5 8 mph 1016mb 79f 73f
Wed 05/04 11:54pm 5 11 mph 1016mb 79f 73f
11:48pm 9 11 mph 1015.9mb 79f 74f
11:42pm 8 13 mph 1015.9mb 79f 74f
11:36pm 9 13 mph 1015.9mb 79f 74f
11:30pm 9 13 mph 1015.9mb 79f 74f
11:24pm 8 14 mph 1015.9mb 79f 74f
11:18pm 10 13 mph 1015.9mb 79f 74f
11:12pm 7 15 mph 1015.8mb 79f 74f
11:06pm 11 14 mph 1015.7mb 79f 75f
11:00pm 11 14 mph 1015.7mb 79f 75f
10:54pm 10 14 mph 1015.7mb 79f 75f
10:48pm  -  mph 1015.6mb 79f 75f
10:42pm  -  mph 1015.6mb 79f 75f
10:36pm  -  mph 1015.6mb 79f 75f
10:30pm 11 14 mph 1015.6mb 79f 75f
10:24pm 13 15 mph 1015.5mb 79f 75f
10:18pm 11 15 mph 1015.6mb 79f 76f
10:12pm 14 15 mph 1015.5mb 79f 75f
10:06pm 13 15 mph 1015.5mb 79f 75f
10:00pm  -  mph 1015.4mb 79f -
9:54pm  -  mph 1015.4mb 79f -
9:48pm 13 15 mph 1015.3mb 79f -
9:42pm 13 14 mph 1015.4mb 79f -
9:36pm 11 15 mph 1015.3mb 79f -
9:30pm 13 14 mph 1015.3mb 79f 76f
9:24pm 11 14 mph 1015.3mb 79f 76f
9:18pm  -  mph 1015.1mb 79f 76f
9:12pm  -  mph 1015mb 79f 76f
9:06pm  -  mph 1015mb 79f 76f
9:00pm  -  mph 1014.9mb 79f 76f
8:54pm  -  mph 1014.8mb 79f 76f
8:48pm  -  mph 1014.8mb 79f -
8:42pm  -  mph 1014.7mb 79f -
8:36pm  -  mph 1014.6mb 79f -
8:30pm 9 11 mph 1014.5mb 79f -
8:24pm 10 11 mph 1014.4mb 79f -
8:18pm  -  mph 1014.4mb 79f 76f
8:12pm  -  mph 1014.4mb 79f 76f
8:06pm  -  mph 1014.5mb 79f 76f
8:00pm  -  mph 1014.4mb 79f -
7:54pm  -  mph 1014.4mb 79f -
7:48pm 9 13 mph 1014.4mb 79f -
7:42pm 9 13 mph 1014.4mb 79f -
7:36pm 10 11 mph 1014.5mb 79f -
7:30pm 9 13 mph 1014.5mb 79f -
7:24pm 8 13 mph 1014.4mb 79f -
7:18pm  -  mph 1014.5mb 79f 76f
7:12pm  -  mph 1014.5mb 79f 76f
7:06pm  -  mph 1014.6mb 79f 76f
7:00pm  -  mph 1014.7mb 79f 76f
6:54pm  -  mph 1014.7mb 79f 76f
6:48pm  -  mph - 79f -
6:42pm  -  mph - 79f -
6:36pm  -  mph - 79f -
6:30pm  -  mph 1014.7mb - -
6:24pm  -  mph 1014.7mb - -
6:18pm 10 14 mph 1014.7mb 79f -
6:12pm 10 14 mph 1014.7mb 79f -
6:06pm 11 14 mph 1014.7mb 79f -
6:00pm  -  mph 1014.6mb 79f -
5:54pm  -  mph 1014.8mb 79f -
5:48pm  -  mph - 79f -
5:42pm  -  mph - 79f -
5:36pm  -  mph - 79f -
5:30pm 10 14 mph 1014.8mb 79f 76f
5:24pm 9 14 mph 1014.9mb 79f 77f
5:18pm  -  mph 1015mb 79f 76f
5:12pm  -  mph 1015.1mb 79f 76f
5:06pm  -  mph 1015.1mb 79f 76f
5:00pm  -  mph 1015.1mb 78f 77f
4:54pm  -  mph 1015.1mb 78f 77f
4:48pm  -  mph 1015.1mb 78f 77f
4:42pm  -  mph 1015.2mb 78f 78f
4:36pm  -  mph 1015.2mb 78f 77f
4:30pm 7 10 mph 1015.3mb 78f 78f
4:24pm 8 10 mph 1015.4mb 78f 78f
4:18pm 8 13 mph 1015.5mb 78f 77f
4:12pm 10 13 mph 1015.5mb 78f 77f
4:06pm 8 11 mph 1015.6mb 78f 78f
4:00pm 6 9 mph 1015.6mb 78f 78f
3:54pm 7 13 mph 1015.6mb 78f 77f
3:48pm 10 13 mph 1015.7mb 78f 77f
3:42pm 9 13 mph 1015.8mb 78f 77f
3:36pm 9 13 mph 1015.9mb 78f 78f
3:30pm 8 13 mph 1016.1mb 78f 77f
3:24pm 10 13 mph 1016.2mb 78f 77f
3:18pm 8 10 mph 1016.3mb 78f 77f
3:12pm 7 10 mph 1016.4mb 78f 77f
3:06pm 7 9 mph 1016.4mb 78f 78f
3:00pm 7 10 mph 1016.5mb 78f 78f
2:54pm 6 9 mph 1016.6mb 78f 78f
2:48pm 5 9 mph 1016.7mb 78f 78f
2:42pm 6 10 mph 1016.8mb 78f 77f
2:36pm 8 10 mph 1016.9mb 78f 77f
2:30pm 7 10 mph 1017mb 78f 77f
2:24pm 7 9 mph 1017.1mb 78f 77f
2:18pm 7 9 mph 1017.1mb 78f 76f
2:12pm 8 10 mph 1017.1mb 78f 76f
2:06pm 6 9 mph 1017.2mb 78f 76f
2:00pm 7 8 mph 1017.3mb 78f 76f
1:54pm 6 8 mph 1017.3mb 78f 76f
1:48pm 3 6 mph 1017.4mb 78f 76f
1:42pm 2 6 mph 1017.5mb 78f 76f
1:36pm 2 7 mph 1017.5mb 78f 77f
1:30pm 2 6 mph 1017.6mb 78f 76f
1:24pm 2 6 mph 1017.6mb 78f 76f
1:18pm 2 8 mph 1017.8mb 78f 76f
1:12pm 3 7 mph 1017.8mb 78f 76f
1:06pm 3 7 mph 1017.9mb 78f 77f
1:00pm 5 9 mph 1018mb 78f 78f
12:54pm 5 11 mph 1018.1mb 78f 78f
12:48pm 7 10 mph 1018.3mb 78f 77f
12:42pm 5 8 mph 1018.3mb 78f 77f
12:36pm 5 9 mph 1018.4mb 78f 77f
12:30pm 3 9 mph 1018.6mb 78f 77f
12:24pm 2 9 mph 1018.5mb 78f 77f
12:18pm 6 9 mph 1018.6mb 78f 76f
12:12pm 2 8 mph 1018.7mb 78f 76f
12:06pm 2 9 mph 1018.7mb 78f 76f
12:00pm 2 9 mph 1018.8mb 78f 76f
11:54am 2 8 mph 1018.8mb 78f 76f
11:48am 6 10 mph 1018.9mb 78f 76f
11:42am 2 8 mph 1019mb 78f 76f
11:36am 3 10 mph 1019mb 78f 76f
11:30am 2 7 mph 1019mb 78f 76f
11:24am 5 11 mph 1019.1mb 78f 76f
11:18am 7 11 mph 1019.1mb 78f 75f
11:12am 7 13 mph 1019.1mb 78f 75f
11:06am 8 11 mph 1019.2mb 78f 75f
11:00am 8 11 mph 1019.2mb 78f 74f
10:54am 10 14 mph 1019.3mb 78f 73f
10:48am 6 10 mph 1019.2mb 78f 74f
10:42am 7 15 mph 1019.3mb 78f 74f
10:36am 7 13 mph 1019.2mb 78f 73f
10:30am 9 15 mph 1019.2mb 78f 73f
10:24am 8 13 mph 1019.2mb 78f 73f
10:18am 5 11 mph 1019.2mb 78f 73f
10:12am 3 9 mph 1019.2mb 78f 72f
10:06am 8 13 mph 1019.3mb 78f 72f
10:00am 8 11 mph 1019.2mb 78f 71f
9:54am 6 11 mph 1019.2mb 78f 71f
9:48am 7 10 mph 1019.2mb 78f -
9:42am 9 14 mph 1019.1mb 78f -
9:36am 8 11 mph 1019.1mb 78f -
9:30am 5 14 mph 1019.1mb 78f 70f
9:24am 7 11 mph 1019.1mb 78f 70f
9:18am 8 13 mph 1019.1mb 78f 69f
9:12am 9 14 mph 1019.1mb 78f 69f
9:06am 7 10 mph 1019mb 78f 69f
9:00am 7 9 mph 1019mb 78f 68f
8:54am 7 10 mph 1019mb 78f 67f
8:48am 8 10 mph - - -
8:42am 7 9 mph - - -
8:36am 6 8 mph - - -
8:30am 8 9 mph 1018.7mb 78f 66f
8:24am 7 10 mph 1018.7mb 78f 66f
8:18am 6 9 mph 1018.6mb 78f 66f
8:12am 6 9 mph 1018.6mb 78f 65f
8:06am 6 9 mph 1018.6mb 78f 65f
8:00am 6 8 mph 1018.6mb 78f 65f
7:54am 6 8 mph 1018.5mb 78f 64f
7:48am 6 7 mph 1018.3mb 78f 64f
7:42am 6 8 mph 1018.2mb 78f 63f
7:36am 6 7 mph 1018.2mb 78f 63f
7:30am 6 7 mph 1018mb 78f 63f
7:24am 5 7 mph 1018mb 78f 63f
7:18am 5 6 mph 1017.9mb 78f 63f
7:12am 5 7 mph 1017.8mb 78f 63f
7:06am 6 7 mph 1017.7mb 78f 64f
7:00am 5 7 mph 1017.6mb 78f 64f
6:54am 5 7 mph 1017.5mb 78f 64f
6:48am 5 7 mph 1017.5mb 78f 63f
6:42am 5 7 mph 1017.4mb 78f 63f
6:36am 5 6 mph 1017.4mb 78f 63f
6:30am 3 6 mph 1017.4mb 78f 63f
6:24am 5 6 mph 1017.5mb 78f 63f
6:18am 3 6 mph 1017.4mb 78f 63f
6:12am 5 6 mph 1017.3mb 78f 63f
6:06am 5 6 mph 1017.3mb 78f 63f
6:00am 6 7 mph 1017.3mb 78f 63f
5:54am 3 5 mph 1017.3mb 78f 63f
5:48am 3 6 mph 1017.3mb 78f 64f
5:42am 3 7 mph 1017.3mb 78f 63f
5:36am 3 7 mph 1017.4mb 78f 63f
5:30am 5 6 mph 1017.3mb 78f 63f
5:24am 3 6 mph 1017.2mb 78f 64f
5:18am 3 6 mph 1017.2mb 78f 63f
5:12am 3 5 mph 1017.3mb 78f 63f
5:06am 2 5 mph 1017.3mb 78f 63f
5:00am 2 3 mph 1017.3mb 78f 63f
4:54am 2 3 mph 1017.3mb 78f 64f
4:48am 2 3 mph 1017.2mb 78f 65f
4:42am 2 5 mph 1017.1mb 78f 65f
4:36am 3 6 mph 1017mb 78f 65f
4:30am 3 6 mph 1017.1mb 78f 65f
4:24am 3 6 mph 1017.1mb 78f 66f
4:18am 5 8 mph 1017.1mb 78f 66f
4:12am 5 10 mph 1017mb 78f 67f
4:06am 6 11 mph 1017mb 78f 67f
4:00am 7 10 mph 1016.9mb 78f 67f
3:54am 6 8 mph 1017mb 79f 67f
3:48am 6 9 mph 1016.9mb 79f 67f
3:42am 6 9 mph 1016.9mb 79f 67f
3:36am 7 11 mph 1017mb 79f 68f
3:30am 7 13 mph 1017mb 79f 68f
3:24am 6 15 mph 1017mb 79f 68f
3:18am 9 11 mph 1017mb 79f 68f
3:12am 9 15 mph 1017mb 79f 68f
3:06am 10 15 mph 1017mb 79f 69f
3:00am 9 14 mph 1017.1mb 79f 69f
2:54am 7 11 mph 1017.2mb 79f 69f
2:48am 7 11 mph 1017.2mb 79f 69f
2:42am 8 13 mph 1017.2mb 79f 69f
2:36am 6 9 mph 1017.1mb 79f 68f
2:30am 7 11 mph 1017.2mb 79f 68f
2:24am 8 11 mph 1017.2mb 79f 68f
2:18am 6 9 mph 1017.2mb 79f 68f
2:12am 6 9 mph 1017.3mb 79f 68f
2:06am 6 8 mph 1017.4mb 79f 68f
2:00am 7 9 mph 1017.4mb 79f 68f
1:54am 6 9 mph 1017.4mb 79f 68f
1:48am 5 8 mph 1017.4mb 79f 68f
1:42am 5 6 mph 1017.4mb 79f 68f
1:36am 3 7 mph 1017.4mb 79f 69f
1:30am 5 8 mph 1017.4mb 79f 69f
1:24am 6 10 mph 1017.3mb 79f 69f
1:18am 7 9 mph 1017.3mb 79f 69f
1:12am 6 8 mph 1017.3mb 79f 69f
1:06am 5 6 mph 1017.4mb 79f 69f
1:00am 5 7 mph 1017.4mb 79f 70f
12:54am 5 6 mph 1017.4mb 79f 69f
12:48am  -  mph 1017.3mb 79f 69f
12:42am  -  mph 1017.3mb 79f 69f
12:36am  -  mph 1017.3mb 79f 70f
12:30am 3 6 mph 1017.3mb 79f 70f
12:24am 5 6 mph 1017.3mb 79f 71f
12:18am 5 6 mph 1017.3mb 79f 71f
12:12am 5 6 mph 1017.3mb 79f 71f
12:06am 5 6 mph 1017.2mb 79f 71f
12:00am 5 8 mph 1017.2mb 79f 72f
Tue 05/03 11:54pm 2 8 mph 1017.2mb 79f 72f
11:48pm 2 7 mph 1017.1mb 79f 73f
11:42pm 1 7 mph 1017.1mb 79f 73f
11:36pm 2 8 mph 1017mb 79f 73f
11:30pm 3 7 mph 1017mb 79f 73f
11:24pm 5 7 mph 1017mb 79f 73f
11:18pm 3 7 mph 1016.9mb 79f 73f
11:12pm 5 7 mph 1016.8mb 79f 72f
11:06pm 5 7 mph 1016.8mb 79f 72f
11:00pm 5 7 mph 1016.9mb 79f 72f
10:54pm 5 7 mph 1016.8mb 79f 72f
10:48pm  -  mph 1016.8mb 79f 73f
10:42pm  -  mph 1016.7mb 79f 72f
10:36pm  -  mph 1016.7mb 79f 72f
10:30pm 3 6 mph 1016.6mb 79f 72f
10:24pm 2 5 mph 1016.6mb 79f 73f
10:18pm 3 7 mph 1016.6mb 79f 74f
10:12pm 2 7 mph 1016.5mb 79f 74f
10:06pm 1 6 mph 1016.5mb 79f 74f
10:00pm 1 7 mph 1016.4mb 79f 74f
9:54pm 1 7 mph 1016.4mb 79f 74f
9:48pm  -  mph 1016.3mb 79f 74f
9:42pm  -  mph 1016.3mb 79f 74f
9:36pm  -  mph 1016.2mb 79f 74f
9:30pm  -  mph 1016mb 79f 75f
9:24pm  -  mph 1015.9mb 79f 75f
9:18pm  -  mph 1015.9mb 79f 75f
9:12pm  -  mph 1015.7mb 79f 75f
9:06pm  -  mph 1015.6mb 79f 75f
9:00pm  -  mph 1015.6mb 79f 75f
8:54pm  -  mph 1015.5mb 79f 75f
8:48pm  -  mph 1015.4mb 79f 74f
8:42pm  -  mph 1015.3mb 79f 74f
8:36pm  -  mph 1015.2mb 79f 75f
8:30pm 6 8 mph 1015.2mb 79f 75f
8:24pm 6 8 mph 1015.1mb 79f 75f
8:18pm  -  mph 1015.1mb 79f 76f
8:12pm  -  mph 1015.1mb 79f 76f
8:06pm  -  mph 1015mb 79f 76f
8:00pm  -  mph 1014.9mb 79f 76f
7:54pm  -  mph 1014.8mb 79f 76f
7:48pm  -  mph 1014.7mb 79f 76f
7:42pm  -  mph 1014.7mb 79f 76f
7:36pm  -  mph 1014.6mb 79f 76f
7:30pm 2 9 mph 1014.6mb 79f -
7:24pm 2 8 mph 1014.6mb 79f -
7:18pm  -  mph 1014.6mb 79f 76f
7:12pm  -  mph 1014.6mb 79f 76f
7:06pm  -  mph 1014.6mb 79f 76f
7:00pm  -  mph 1014.5mb 79f -
6:54pm  -  mph 1014.5mb 79f -
6:48pm  -  mph 1014.5mb 79f -
6:42pm  -  mph 1014.4mb 79f -
6:36pm  -  mph 1014.4mb 79f -
6:30pm  -  mph 1014.4mb 79f -
6:24pm  -  mph 1014.4mb 79f -
6:18pm  -  mph 1014.4mb 79f 76f
6:12pm  -  mph 1014.4mb 79f 76f
6:06pm  -  mph 1014.4mb 79f 76f
6:00pm  -  mph 1014.4mb 79f 76f
5:54pm  -  mph 1014.4mb 79f 76f
5:48pm  -  mph 1014.4mb 79f 76f
5:42pm  -  mph 1014.4mb 79f 76f
5:36pm  -  mph 1014.4mb 79f 76f
5:30pm 8 14 mph 1014.4mb 79f 76f
5:24pm 7 14 mph 1014.4mb 79f 76f
5:18pm  -  mph 1014.5mb 79f 76f
5:12pm  -  mph 1014.5mb 79f 76f
5:06pm  -  mph 1014.5mb 79f 76f
5:00pm  -  mph 1014.4mb 79f 76f
4:54pm  -  mph 1014.4mb 79f 76f
4:48pm  -  mph 1014.4mb 79f 76f
4:42pm  -  mph 1014.4mb 79f 76f
4:36pm  -  mph 1014.6mb 79f 76f
4:30pm 8 14 mph 1014.6mb 79f 76f
4:24pm 5 16 mph 1014.6mb 79f 76f
4:18pm 6 15 mph 1014.7mb 79f 76f
4:12pm 10 14 mph 1014.7mb 79f 76f
4:06pm 2 10 mph 1014.8mb 79f 78f
4:00pm 7 11 mph 1014.9mb 79f 76f
3:54pm 5 13 mph 1015mb 79f 78f
3:48pm 3 10 mph 1015mb 79f 76f
3:42pm 9 13 mph 1015.1mb 79f 77f
3:36pm 3 10 mph 1015.1mb 79f 78f
3:30pm 3 15 mph 1015.2mb - -
3:24pm 3 13 mph 1015.3mb - -
3:18pm 6 11 mph 1015.4mb 79f 77f
3:12pm 2 14 mph 1015.5mb 79f 78f
3:06pm 6 11 mph 1015.5mb 79f 76f
3:00pm 2 10 mph 1015.6mb 79f 78f
2:54pm 5 11 mph 1015.7mb 79f 78f
2:48pm 1 11 mph 1015.7mb 79f 77f
2:42pm 3 10 mph 1015.7mb 79f 77f
2:36pm 3 13 mph 1015.7mb 79f 77f
2:30pm 6 10 mph 1015.7mb 79f 76f
2:24pm 3 11 mph 1015.9mb 79f 77f
2:18pm 5 10 mph 1016mb 79f 77f
2:12pm 5 11 mph 1015.9mb 79f 76f
2:06pm 2 10 mph 1016mb 79f 77f
2:00pm 2 9 mph 1016.1mb 79f 76f
1:54pm 5 11 mph 1016.1mb 79f 76f
1:48pm 3 14 mph 1016.2mb 79f 75f
1:42pm 8 14 mph 1016.2mb 79f 74f
1:36pm 5 10 mph 1016.4mb 79f 75f
1:30pm 7 13 mph 1016.4mb 79f 74f
1:24pm 5 11 mph 1016.4mb 79f 74f
1:18pm 3 10 mph 1016.4mb 79f 75f
1:12pm 5 11 mph 1016.6mb 79f 74f
1:06pm 2 11 mph 1016.8mb 79f 73f
1:00pm 3 9 mph 1016.9mb 79f 73f
12:54pm 2 10 mph 1016.8mb 79f 73f
12:48pm 5 13 mph 1016.9mb 79f 73f
12:42pm 3 10 mph 1016.9mb 79f 73f
12:36pm 8 16 mph 1017.1mb 79f 72f
12:30pm 6 15 mph 1017.2mb 79f 72f
12:24pm 10 17 mph 1017.2mb 79f 71f
12:18pm 7 16 mph 1017.3mb 79f 71f
12:12pm 7 14 mph 1017.4mb 79f 71f
12:06pm 8 15 mph 1017.5mb 79f 71f
12:00pm 6 13 mph 1017.6mb 79f 71f
11:54am 9 15 mph 1017.7mb 79f 70f
11:48am 10 15 mph 1017.8mb 79f 70f
11:42am 7 16 mph 1017.8mb 79f 70f
11:36am 8 15 mph 1017.9mb 79f 69f
11:30am 8 17 mph 1017.9mb 79f 69f
11:24am 10 20 mph 1018mb 79f 68f
11:18am 11 16 mph 1018.2mb 79f 68f
11:12am 8 13 mph 1018.2mb 79f 68f
11:06am 8 15 mph 1018.3mb 79f 67f
11:00am 9 15 mph 1018.3mb 79f 67f
10:54am 5 14 mph 1018.3mb 79f 67f
10:48am 8 13 mph 1018.3mb 79f 66f
10:42am 9 15 mph 1018.2mb 79f 66f
10:36am 9 14 mph 1018.2mb 79f 66f
10:30am 9 15 mph 1018.1mb 79f 66f
10:24am 10 15 mph 1018.2mb 79f 66f
10:18am 11 16 mph 1018.2mb 79f 66f
10:12am 8 18 mph 1018.1mb 79f 67f
10:06am 11 18 mph 1018.1mb 79f 66f
10:00am 9 17 mph 1018.1mb 79f 66f
9:54am 10 17 mph 1018.1mb 79f 66f
9:48am 5 18 mph 1018.1mb - -
9:42am 7 18 mph 1018mb - -
9:36am 15 20 mph 1018.1mb - -
9:30am 10 18 mph 1018mb 79f 67f
9:24am 6 14 mph 1017.9mb 79f 67f
9:18am 9 17 mph 1018mb 79f 66f
9:12am 7 17 mph 1018mb 79f 66f
9:06am 7 20 mph 1018.1mb 79f 66f
9:00am 15 22 mph 1018.1mb 79f 65f
8:54am 9 18 mph 1017.9mb 79f 65f
8:48am 9 16 mph 1017.9mb 79f 65f
8:42am 14 18 mph 1017.8mb 79f 64f
8:36am 10 18 mph 1017.7mb 79f 65f
8:30am 11 17 mph 1017.7mb 79f 64f
8:24am 9 22 mph 1017.7mb 80f 64f
8:18am 10 16 mph 1017.7mb 80f 64f
8:12am 11 16 mph 1017.7mb 80f 64f
8:06am 11 17 mph 1017.7mb 80f 64f
8:00am 10 16 mph 1017.6mb 80f 64f
7:54am 9 13 mph 1017.6mb 80f 64f
7:48am 10 15 mph 1017.5mb 80f 64f
7:42am 7 13 mph 1017.4mb 80f 64f
7:36am 7 15 mph 1017.4mb 80f 64f
7:30am 11 16 mph 1017.3mb 80f 64f
7:24am 13 16 mph 1017.3mb 80f 64f
7:18am 8 13 mph 1017.2mb 80f 64f
7:12am 9 16 mph 1017mb 80f 64f
7:06am 10 16 mph 1016.9mb 80f 64f
7:00am 10 16 mph 1016.8mb 80f 64f
6:54am 10 17 mph 1016.8mb 80f 64f
6:48am 10 16 mph 1016.9mb 80f 64f
6:42am 9 16 mph 1016.9mb 80f 64f
6:36am 10 17 mph 1016.8mb 80f 64f
6:30am 10 17 mph 1016.7mb 80f 64f
6:24am 10 18 mph 1016.6mb 80f 64f
6:18am 11 18 mph 1016.6mb 80f 64f
6:12am 10 23 mph 1016.7mb 80f 64f
6:06am 13 20 mph 1016.6mb 80f 64f
6:00am 15 23 mph 1016.6mb 80f 64f
5:54am 13 21 mph 1016.6mb 80f 64f
5:48am 13 21 mph 1016.5mb 80f 64f
5:42am 14 22 mph 1016.5mb 80f 64f
5:36am 11 18 mph 1016.4mb 80f 64f
5:30am 13 20 mph 1016.4mb 80f 64f
5:24am 13 17 mph 1016.3mb 80f 64f
5:18am 13 18 mph 1016.3mb 80f 64f
5:12am 13 18 mph 1016.4mb 80f 64f
5:06am 10 16 mph 1016.5mb 80f 64f
5:00am 14 22 mph 1016.5mb 80f 64f
4:54am 11 17 mph 1016.4mb 80f 64f
4:48am 13 20 mph 1016.4mb 80f 64f
4:42am 13 16 mph 1016.4mb 80f 64f
4:36am 9 14 mph 1016.3mb 80f 64f
4:30am 8 13 mph 1016.3mb 80f 64f
4:24am 9 14 mph 1016.3mb 80f 64f
4:18am 10 17 mph 1016.3mb 80f 64f
4:12am 11 17 mph 1016.2mb 80f 64f
4:06am 10 18 mph 1016.2mb 80f 64f
4:00am 13 22 mph 1016.3mb 80f 65f
3:54am 9 18 mph 1016.4mb 80f 65f
3:48am 13 18 mph 1016.3mb 80f 65f
3:42am 13 18 mph 1016.3mb 80f 65f
3:36am 11 17 mph 1016.3mb 80f 65f
3:30am 15 20 mph 1016.4mb 80f 64f
3:24am 9 17 mph 1016.3mb 80f 65f
3:18am 11 17 mph 1016.3mb 80f 65f
3:12am 11 17 mph 1016.3mb 80f 65f
3:06am 11 20 mph 1016.3mb 80f 65f
3:00am 11 16 mph 1016.3mb 80f 65f
2:54am 11 22 mph 1016.3mb 81f 65f
2:48am 15 22 mph 1016.4mb 81f 65f
2:42am 11 17 mph 1016.3mb 81f 65f
2:36am 13 21 mph 1016.3mb 81f 65f
2:30am 10 21 mph 1016.4mb 81f 65f
2:24am 13 18 mph 1016.5mb 81f 65f
2:18am 11 21 mph 1016.6mb 81f 65f
2:12am 9 16 mph 1016.6mb 81f 65f
2:06am 11 17 mph 1016.7mb 81f 65f
2:00am 13 18 mph 1016.9mb 81f 65f
1:54am 10 17 mph 1017mb 81f 65f
1:48am 11 16 mph 1017mb 81f 65f
1:42am 8 16 mph 1017mb 81f 65f
1:36am 10 15 mph 1017.1mb 81f 65f
1:30am 10 16 mph 1017.2mb 81f 65f
1:24am 9 15 mph 1017.2mb 81f 65f
1:18am 10 17 mph 1017.3mb 81f 65f
1:12am 10 15 mph 1017.4mb 81f 65f
1:06am 11 17 mph 1017.5mb 81f 66f
1:00am 9 21 mph 1017.5mb 81f 66f
12:54am 9 17 mph 1017.4mb 81f 66f
12:48am 11 17 mph 1017.5mb 81f 65f
12:42am 7 11 mph 1017.4mb 81f 66f
12:36am 11 15 mph 1017.5mb 81f 66f
12:30am 9 14 mph 1017.6mb 81f 66f
12:24am 7 13 mph 1017.7mb 81f 66f
12:18am 10 15 mph 1017.7mb 81f 66f
12:12am 8 13 mph 1017.6mb 81f 66f
12:06am 9 14 mph 1017.6mb 81f 66f
12:00am 9 15 mph 1017.4mb 81f 67f
Mon 05/02 11:54pm 9 16 mph 1017.4mb 81f 66f
11:48pm 11 18 mph 1017.5mb 81f 67f
11:42pm 10 17 mph 1017.5mb 81f 67f
11:36pm 11 17 mph 1017.4mb 81f 67f
11:30pm 10 16 mph 1017.4mb 81f 67f
11:24pm 11 17 mph 1017.4mb 81f 67f
11:18pm 11 16 mph 1017.5mb 81f 67f
11:12pm 11 16 mph 1017.5mb 81f 67f
11:06pm 11 20 mph 1017.5mb 81f 67f
11:00pm 11 17 mph 1017.4mb 81f 67f
10:54pm 10 16 mph 1017.4mb 81f 67f
10:48pm 9 16 mph 1017.3mb 81f 67f
10:42pm 11 21 mph 1017.2mb 81f 67f
10:36pm 11 21 mph 1017.1mb 81f 67f
10:30pm 14 22 mph 1017.1mb 81f 67f
10:24pm 13 18 mph 1017.1mb 81f 67f
10:18pm 8 20 mph 1017.1mb 81f 67f
10:12pm 9 15 mph 1017mb 81f 67f
10:06pm 9 15 mph 1017.1mb 81f 67f
10:00pm 10 16 mph 1017.1mb 81f 67f
9:54pm 11 16 mph 1017.1mb 81f 67f
9:48pm  -  mph 1017.1mb 81f -
9:42pm  -  mph 1017mb 81f -
9:36pm  -  mph 1017mb 81f -
9:30pm 13 17 mph 1016.9mb 81f 68f
9:24pm 11 17 mph 1016.9mb 81f 68f
9:18pm  -  mph 1016.9mb 81f 68f
9:12pm  -  mph 1016.8mb 81f 68f
9:06pm  -  mph 1016.8mb 81f 68f
9:00pm  -  mph 1016.6mb 81f 68f
8:54pm  -  mph 1016.5mb 81f 68f
8:48pm 11 18 mph 1016.5mb 81f -
8:42pm 8 15 mph 1016.3mb 81f -
8:36pm 13 16 mph 1016.3mb 81f -
8:30pm 13 20 mph 1016.4mb 81f -
8:24pm 9 22 mph 1016.2mb 82f -
8:18pm  -  mph 1016.1mb 81f 68f
8:12pm  -  mph 1016mb 81f 68f
8:06pm  -  mph 1015.9mb 82f 68f
8:00pm  -  mph 1015.7mb 82f 69f
7:54pm  -  mph 1015.7mb 82f 69f
7:48pm 9 20 mph 1015.6mb 82f -
7:42pm 13 21 mph 1015.6mb 82f -
7:36pm 13 25 mph 1015.6mb 82f -
7:30pm 14 23 mph 1015.6mb 82f 69f
7:24pm 13 25 mph 1015.6mb 82f 69f
7:18pm  -  mph 1015.6mb 82f 69f
7:12pm  -  mph 1015.6mb 82f 69f
7:06pm  -  mph 1015.5mb 82f 69f
7:00pm  -  mph 1015.4mb 82f 69f
6:54pm  -  mph 1015.2mb 82f 70f
6:48pm  -  mph 1015.3mb - -
6:42pm  -  mph 1015.2mb - -
6:36pm  -  mph 1015.2mb - -
6:30pm  -  mph - 82f -
6:24pm  -  mph - 82f -
6:18pm 13 24 mph 1015.2mb 82f -
6:12pm 15 24 mph 1015.1mb 82f -
6:06pm 13 22 mph 1015mb 82f -
6:00pm 13 21 mph 1014.9mb 82f 72f
5:54pm 15 23 mph 1014.9mb 82f 71f
5:48pm  -  mph 1015mb - -
5:42pm  -  mph 1015mb - -
5:36pm  -  mph 1015.1mb - -
5:30pm  -  mph 1015mb 82f -
5:24pm  -  mph 1015mb 82f -
5:18pm  -  mph 1015mb 82f 72f
5:12pm  -  mph 1014.9mb 82f 73f
5:06pm  -  mph 1014.9mb 82f 73f
5:00pm  -  mph 1014.9mb 82f 72f
4:54pm  -  mph 1014.9mb 82f 72f
4:48pm  -  mph 1014.9mb 82f -
4:42pm  -  mph 1014.9mb 82f -
4:36pm  -  mph 1014.9mb 82f -
4:30pm 14 22 mph 1014.9mb 82f 73f
4:24pm 13 21 mph 1014.8mb 82f 73f
4:18pm 14 22 mph 1014.8mb 82f 72f
4:12pm 14 21 mph 1014.8mb 82f 72f
4:06pm 15 23 mph 1014.8mb 82f 72f
4:00pm 16 24 mph 1014.9mb 82f 72f
3:54pm 14 22 mph 1015mb 82f 72f
3:48pm 14 23 mph 1014.9mb 82f 73f
3:42pm 11 20 mph 1015mb 82f 73f
3:36pm 15 21 mph 1015mb 82f 73f
3:30pm 11 21 mph 1015mb 82f 73f
3:24pm 14 23 mph 1015.1mb 82f 73f
3:18pm 14 21 mph 1015.1mb 82f 73f
3:12pm 14 23 mph 1015.1mb 82f 73f
3:06pm 15 22 mph 1015.1mb 82f 73f
3:00pm 13 22 mph 1015.1mb 82f 73f
2:54pm 14 23 mph 1015mb 82f 73f
2:48pm 15 23 mph 1015.1mb 82f 72f
2:42pm 13 23 mph 1015.2mb 82f 72f
2:36pm 13 18 mph 1015.3mb 82f 72f
2:30pm 14 22 mph 1015.4mb 82f 72f
2:24pm 16 26 mph 1015.4mb 82f 72f
2:18pm 13 18 mph 1015.4mb 82f 72f
2:12pm 16 24 mph 1015.4mb 82f 71f
2:06pm 10 21 mph 1015.4mb 82f 71f
2:00pm 14 24 mph 1015.4mb 82f 71f
1:54pm 14 21 mph 1015.4mb 82f 70f
1:48pm 10 20 mph 1015.4mb 82f 70f
1:42pm 14 22 mph 1015.6mb 82f 70f
1:36pm 15 22 mph 1015.7mb 82f 70f
1:30pm 13 21 mph 1015.7mb 82f 70f
1:24pm 14 18 mph 1015.7mb 82f 69f
1:18pm 16 25 mph 1015.7mb 82f 69f
1:12pm 13 22 mph 1015.8mb 82f 69f
1:06pm 13 22 mph 1015.7mb 82f 69f
1:00pm 15 24 mph 1015.7mb 82f 69f
12:54pm 14 22 mph 1015.8mb 82f 69f
12:48pm 13 21 mph 1015.8mb 82f 70f
12:42pm 15 26 mph 1015.7mb 82f 69f
12:36pm 18 29 mph 1015.7mb 82f 69f
12:30pm 14 24 mph 1015.7mb 82f 70f
12:24pm 17 28 mph 1015.7mb 82f 69f
12:18pm 14 23 mph 1015.6mb 82f 70f
12:12pm 15 25 mph 1015.6mb 82f 69f
12:06pm 16 24 mph 1015.7mb 82f 70f
12:00pm 14 23 mph 1015.6mb 82f 70f
11:54am 14 22 mph 1015.7mb 82f 69f
11:48am 11 20 mph 1015.6mb 83f 69f
11:42am 11 23 mph 1015.6mb 83f 69f
11:36am 13 23 mph 1015.5mb 83f 69f
11:30am 15 22 mph 1015.5mb 83f 69f
11:24am 13 23 mph 1015.3mb 83f 69f
11:18am 14 25 mph 1015.2mb 83f 69f
11:12am 18 31 mph 1015.3mb 83f 69f
11:06am 20 30 mph 1015.3mb 83f 68f
11:00am 18 32 mph 1015.3mb 83f 69f
10:54am 17 28 mph 1015.2mb 83f 69f
10:48am 17 28 mph 1015.1mb 83f 68f
10:42am 17 26 mph 1015.1mb 83f 68f
10:36am 17 24 mph 1015mb 83f 69f
10:30am 14 26 mph 1014.8mb 83f 69f
10:24am 15 25 mph 1014.7mb 83f 69f
10:18am 20 30 mph 1014.7mb 83f 68f
10:12am 15 24 mph 1014.5mb 83f 68f
10:06am 15 22 mph 1014.6mb 83f 68f
10:00am 15 24 mph 1014.5mb 83f 68f
9:54am 17 23 mph 1014.5mb 83f 68f
9:48am 14 23 mph 1014.5mb 83f 68f
9:42am 15 22 mph 1014.5mb 83f 68f
9:36am 11 21 mph 1014.3mb 83f 68f
9:30am 15 23 mph 1014.3mb 83f 68f
9:24am 15 23 mph 1014mb 83f 69f
9:18am 13 21 mph 1014.1mb 83f 69f
9:12am 14 23 mph 1014.2mb 83f 69f
9:06am 14 23 mph 1014.1mb 83f 68f
9:00am 14 21 mph 1013.9mb 83f 68f
8:54am 15 24 mph 1013.8mb 83f 68f
8:48am 14 22 mph 1013.6mb 83f -
8:42am 14 25 mph 1013.7mb 83f -
8:36am 15 23 mph 1013.9mb 83f -
8:30am 11 23 mph 1013.7mb 83f 68f
8:24am 14 24 mph 1013.7mb 83f 69f
8:18am 14 22 mph 1013.5mb 83f 69f
8:12am 14 18 mph 1013.4mb 83f 69f
8:06am 14 22 mph 1013.3mb 83f 68f
8:00am 14 24 mph 1013.2mb 83f 68f
7:54am 14 21 mph 1013mb 83f 68f
7:48am 14 25 mph 1012.8mb 83f 68f
7:42am 16 24 mph 1012.8mb 83f 68f
7:36am 15 23 mph 1012.7mb 83f 68f
7:30am 14 22 mph 1012.5mb 83f 68f
7:24am 13 23 mph 1012.5mb 84f 68f
7:18am 13 18 mph 1012.6mb 84f 69f
7:12am 11 22 mph 1012.5mb 84f 69f
7:06am 14 22 mph 1012.3mb 84f 68f
7:00am 14 23 mph 1012.2mb 84f 69f
6:54am 15 25 mph 1012.1mb 84f 69f
6:48am 16 22 mph 1012mb 84f 69f
6:42am 13 21 mph 1012mb 84f 69f
6:36am 18 25 mph 1012mb 84f 69f
6:30am 15 22 mph 1011.8mb 84f 70f
6:24am 15 21 mph 1011.6mb 84f 70f
6:18am 15 23 mph 1011.4mb 84f 71f
6:12am 13 20 mph 1011mb 84f 71f
6:06am 13 23 mph 1010.9mb 84f 71f
6:00am 14 22 mph 1010.7mb 84f 72f
5:54am 14 21 mph 1010.7mb 84f 72f
5:48am 10 17 mph 1010.6mb 84f 73f
5:42am 14 17 mph 1010.5mb 84f 73f
5:36am 13 17 mph 1010.4mb 84f 73f
5:30am 10 18 mph 1010.4mb 84f 73f
5:24am 14 20 mph 1010.5mb 84f 74f
5:18am 8 13 mph 1010.5mb 84f 77f
5:12am 6 9 mph 1010.3mb 84f 78f
5:06am 6 9 mph 1010.2mb 84f 78f
5:00am 8 11 mph 1010.1mb 84f 78f
4:54am 2 7 mph 1010mb 84f 79f
4:48am 1 7 mph 1010mb 84f 79f
4:42am 2 8 mph 1010mb 84f 79f
4:36am 6 10 mph 1010mb 84f 78f
4:30am 7 11 mph 1010mb 84f 78f
4:24am 8 11 mph 1010mb 84f 78f
4:18am 3 11 mph 1010mb 84f 78f
4:12am 2 8 mph 1010mb 84f 79f
4:06am 2 8 mph 1010.1mb 84f 79f
4:00am 2 9 mph 1010.1mb 84f 79f
3:54am 3 7 mph 1010.2mb 84f 79f
3:48am 1 6 mph 1010.3mb 84f 79f
3:42am 6 10 mph 1010.5mb 84f 79f
3:36am 7 10 mph 1010.8mb 84f 79f
3:30am 3 10 mph 1010.9mb 84f 79f
3:24am 1 7 mph 1010.9mb 84f 79f
3:18am 2 13 mph 1010.7mb 84f 79f
3:12am 3 10 mph 1010.5mb 84f 79f
3:06am 3 10 mph 1010.5mb 84f 79f
3:00am 1 14 mph 1010.2mb 84f 79f
2:54am 5 13 mph 1010.1mb 84f 79f
2:48am 9 14 mph 1010mb 84f 79f
2:42am 3 11 mph 1010.2mb 84f 79f
2:36am 3 14 mph 1010.2mb 84f 79f
2:30am 9 15 mph 1010.4mb 84f 79f
2:24am 9 14 mph 1010.3mb 84f 79f
2:18am 10 21 mph 1010.2mb 84f 79f
2:12am 14 17 mph 1010.5mb 84f 79f
2:06am 13 17 mph 1010.8mb 84f 79f
2:00am 10 18 mph 1010.7mb 84f 79f
1:54am 8 17 mph 1010.8mb 84f 79f
1:48am 11 16 mph 1010.7mb - -
1:42am 15 21 mph 1010.7mb - -
1:36am 14 20 mph 1010.7mb - -
1:30am 14 20 mph 1010.5mb 84f 80f
1:24am 14 18 mph 1010.5mb 84f 80f
1:18am 11 18 mph 1010.4mb 84f 80f
1:12am 8 20 mph 1010.4mb 84f 80f
1:06am 9 17 mph 1010.4mb 84f 80f
1:00am 14 18 mph 1010.4mb 84f 80f
12:54am 14 18 mph 1010.3mb 84f 80f
12:48am 8 16 mph - - -
12:42am 9 16 mph - - -
12:36am 13 15 mph - - -
12:30am 10 16 mph 1010.7mb 84f 80f
12:24am 10 15 mph 1010.8mb 84f 80f
12:18am 9 17 mph 1010.7mb 84f 80f
12:12am 11 17 mph 1010.6mb 84f 80f
12:06am 10 17 mph 1010.7mb 84f 80f
12:00am 13 20 mph 1010.7mb 84f 81f
Sun 05/01 11:54pm 13 18 mph 1010.8mb 84f 80f
11:48pm 13 18 mph 1010.7mb 84f 81f
11:42pm 10 16 mph 1010.7mb 84f 81f
11:36pm 9 17 mph 1010.7mb 84f 80f
11:30pm 10 15 mph 1010.9mb 84f 81f
11:24pm 8 14 mph 1011mb 84f 81f
11:18pm 6 13 mph 1010.9mb 84f 81f
11:12pm 5 15 mph 1010.9mb 84f 80f
11:06pm 9 16 mph 1010.9mb 84f 81f
11:00pm 8 16 mph 1011mb 85f 81f
10:54pm 6 17 mph 1011mb 85f 81f
10:48pm 11 18 mph 1010.8mb 85f 80f
10:42pm 15 18 mph 1010.8mb 85f 81f
10:36pm 10 18 mph 1010.8mb 85f 81f
10:30pm 14 21 mph 1010.6mb 85f 81f
10:24pm 8 21 mph 1010.6mb 85f 81f
10:18pm 5 16 mph 1010.5mb 85f 81f
10:12pm 5 11 mph 1010.4mb 85f 81f
10:06pm 3 20 mph 1010.4mb 85f 81f
10:00pm  -  mph 1010.4mb 85f 81f
9:54pm  -  mph 1010.3mb 85f 81f
9:48pm  -  mph 1010.1mb 85f -
9:42pm  -  mph 1010.2mb 85f -
9:36pm  -  mph 1010.1mb 85f -
9:30pm  -  mph 1010.1mb 85f -
9:24pm  -  mph 1010.1mb 85f -
9:18pm  -  mph 1010mb 85f -
9:12pm  -  mph 1009.9mb 85f -
9:06pm  -  mph 1009.7mb 85f -
9:00pm 5 11 mph 1009.6mb 85f 81f
8:54pm 5 9 mph 1009.4mb 85f 81f
8:48pm  -  mph 1009.3mb 85f -
8:42pm  -  mph 1009.2mb 85f -
8:36pm  -  mph 1009.1mb 85f -
8:30pm  -  mph - 85f -
8:24pm  -  mph - 85f -
8:18pm 7 16 mph 1008.8mb 85f 81f
8:12pm 10 15 mph 1008.6mb 85f 81f
8:06pm 5 11 mph 1008.5mb 85f 81f
8:00pm  -  mph 1008.4mb 85f 81f
7:54pm  -  mph 1008.3mb 85f 81f
7:48pm  -  mph 1008.3mb 85f -
7:42pm  -  mph 1008.1mb 85f -
7:36pm  -  mph 1008mb 85f -
7:30pm 2 14 mph 1007.9mb 85f -
7:24pm 3 13 mph 1007.7mb 85f -
7:18pm  -  mph - 85f -
7:12pm  -  mph - 85f -
7:06pm  -  mph - 85f -
7:00pm  -  mph - 85f -
6:54pm  -  mph - 85f -
6:48pm  -  mph 1007.7mb - -
6:42pm  -  mph 1007.7mb - -
6:36pm  -  mph 1007.7mb - -
6:30pm 3 15 mph 1007.7mb 85f 82f
6:24pm 5 15 mph 1007.5mb 84f 82f
6:18pm 10 16 mph 1007.5mb 84f -
6:12pm 5 13 mph 1007.3mb 84f -
6:06pm 2 15 mph 1007.3mb 84f -
6:00pm  -  mph 1007.2mb 84f 83f
5:54pm  -  mph 1007.2mb 84f 82f
5:48pm  -  mph 1007.1mb - -
5:42pm  -  mph 1007.1mb - -
5:36pm  -  mph 1007mb - -
5:30pm  -  mph 1007mb 84f 82f
5:24pm  -  mph 1007mb 84f 82f
5:18pm 3 10 mph 1006.9mb 84f -
5:12pm 7 11 mph 1006.8mb 84f -
5:06pm 6 11 mph 1006.8mb 84f -
5:00pm 5 10 mph 1006.8mb 84f 82f
4:54pm 6 11 mph 1006.9mb 84f 82f
4:48pm  -  mph 1007mb 84f -
4:42pm  -  mph 1007.1mb 84f -
4:36pm  -  mph 1007.1mb 84f -
4:30pm 5 11 mph 1007mb 84f 82f
4:24pm 5 9 mph 1007mb 84f 83f
4:18pm 5 11 mph 1007.1mb 84f 83f
4:12pm 3 9 mph 1007.2mb 84f 83f
4:06pm 7 13 mph 1007.2mb 84f 82f
4:00pm 7 13 mph 1007.4mb 84f 82f
3:54pm 7 11 mph 1007.4mb 84f 82f
3:48pm 7 10 mph 1007.4mb 84f 82f
3:42pm 6 10 mph 1007.5mb 83f 82f
3:36pm 6 10 mph 1007.6mb 83f 83f
3:30pm 6 10 mph 1007.6mb 83f 82f
3:24pm 6 11 mph 1007.6mb 83f 82f
3:18pm 6 11 mph 1007.6mb 83f 83f
3:12pm 6 10 mph 1007.7mb 83f 83f
3:06pm 5 9 mph 1007.8mb 83f 83f
3:00pm 5 8 mph 1007.9mb 83f 83f
2:54pm 6 11 mph 1008mb 83f 82f
2:48pm 10 13 mph 1007.9mb 83f 82f
2:42pm 9 14 mph 1008mb 83f 83f
2:36pm 9 13 mph 1008.2mb 83f 83f
2:30pm 9 14 mph 1008.1mb 83f 83f
2:24pm 9 14 mph 1008.2mb 83f 83f
2:18pm 9 14 mph 1008.2mb 83f 82f
2:12pm 9 14 mph 1008.2mb 83f 83f
2:06pm 9 14 mph 1008.2mb 83f 83f
2:00pm 9 14 mph 1008.2mb 83f 83f
1:54pm 8 13 mph 1008.2mb 83f 83f
1:48pm 9 11 mph 1008.3mb 83f 83f
1:42pm 7 11 mph 1008.4mb 83f 83f
1:36pm 7 11 mph 1008.4mb 83f 83f
1:30pm 7 11 mph 1008.5mb 83f 83f
1:24pm 7 10 mph 1008.7mb 83f 83f
1:18pm 7 11 mph 1008.7mb 83f 83f
1:12pm 9 11 mph 1008.7mb 83f 83f
1:06pm 8 10 mph 1008.8mb 83f 83f
1:00pm 5 7 mph 1008.9mb 83f 83f
12:54pm 5 7 mph 1009mb 83f 83f
12:48pm 5 7 mph 1009mb 83f 83f
12:42pm 6 7 mph 1009.1mb 83f 83f
12:36pm 6 7 mph 1009.2mb 83f 83f
12:30pm 5 8 mph 1009.2mb 83f 83f
12:24pm 6 8 mph 1009.2mb 83f 83f
12:18pm 2 6 mph 1009.3mb 83f 83f
12:12pm 2 5 mph 1009.4mb 83f 83f
12:06pm 3 6 mph 1009.4mb 83f 82f
12:00pm 5 6 mph 1009.5mb 83f 82f
11:54am 6 7 mph 1009.4mb 83f 82f
11:48am 5 7 mph 1009.3mb 83f 82f
11:42am 6 7 mph 1009.3mb 83f 82f
11:36am 6 7 mph 1009.3mb 83f 82f
11:30am 7 9 mph 1009.2mb 83f 82f
11:24am 7 9 mph 1009.1mb 83f 82f
11:18am 7 9 mph 1009.1mb 83f 82f
11:12am 2 8 mph 1009.1mb 83f 82f
11:06am 6 9 mph 1009mb 83f 82f
11:00am 6 9 mph 1009mb 83f 82f
10:54am 7 9 mph 1009mb 82f 81f
10:48am 7 9 mph 1009mb 82f 82f
10:42am 7 9 mph 1008.9mb 82f 82f
10:36am 7 10 mph 1009mb 82f 81f
10:30am 7 11 mph 1009mb 82f 81f
10:24am 8 10 mph 1009mb 82f 81f
10:18am 6 9 mph 1008.9mb 82f 82f
10:12am 6 8 mph 1008.9mb 82f 82f
10:06am 6 7 mph 1009mb 82f 82f
10:00am 5 7 mph 1008.9mb 82f 82f
9:54am 6 7 mph 1008.9mb 82f 81f
9:48am 6 7 mph 1008.9mb - -
9:42am 5 6 mph 1008.9mb - -
9:36am 5 6 mph 1008.9mb - -
9:30am 3 6 mph 1008.9mb 82f 81f
9:24am 5 6 mph 1008.8mb 82f 81f
9:18am 5 8 mph 1008.8mb 82f 80f
9:12am 5 7 mph 1008.8mb 82f 80f
9:06am 3 6 mph 1008.8mb 82f 80f
9:00am 5 6 mph 1008.8mb 82f 80f
8:54am 3 6 mph 1008.8mb 82f 80f
8:48am 5 7 mph 1008.8mb 82f 80f
8:42am 6 9 mph 1008.7mb 82f 80f
8:36am 6 8 mph 1008.6mb 82f 80f
8:30am 6 8 mph 1008.4mb 82f 79f